Voltar ao catálogo

COSMOS 1508

AtivoMilitarPO
NORAD 14483·PAYLOAD·🇷🇺 Russia

Lançado Nov 11, 1983 de Plesetsk Cosmodrome

Loading…

Próximas Passagens (próximas 24 horas)

TLE

AtualizadoSource: Space-Track

Época: Sep 14, 2026, 14:08 UTC

1 14483U 83111A   26257.58907511  .00001306  00000-0  79805-4 0  9995
2 14483  82.8858 178.5461 0670880 194.6685 163.4159 14.08235635133914

Acompanhe COSMOS 1508 em tempo real com AllMySat

Download on the App Store